Epoch,demod_status_bits,ebno,lock_status,signal_level,viterbi_ber
1664184157,C;S;V;F,10.8,0x00c000,-40.3,3.46e-5
1664184158,C;S;V;F,11.0,0x00c000,-40.1,3.75e-5
1664184159,C;S;V;F,11.3,0x00c000,-40.0,2.36e-5
1664184160,C;S;V;F,11.2,0x00c000,-40.2,1.94e-5
1664184161,C;S;V;F,10.8,0x00c000,-40.2,2.67e-5
1664184162,C;S;V;F,10.8,0x00c000,-40.4,3.10e-5
1664184163,C;S;V;F,11.0,0x00c000,-40.2,3.13e-5
1664184164,C;S;V;F,11.4,0x00c000,-39.9,
1664184165,,11.1,0x00c000,-40.1,1.79e-5
1664184166,C;S;V;F,11.0,0x00c000,-40.2,1.75e-5
1664184167,C;S;V;F,11.2,0x00c000,-40.2,2.15e-5
1664184168,C;S;V;F,11.8,0x00c000,-39.5,2.01e-5
1664184169,C;S;V;F,,0x00c000,-39.5,9.69e-6
1664184170,C;S;V;F,11.7,0x00c000,,5.89e-6
1664184171,C;S;V;F,11.5,0x00c000,-40.0,8.16e-6
1664184172,C;S;V;F,11.4,0x00c000,-39.4,1.21e-5
1664184173,C;S;V;F,11.9,0x00c000,-40.1,9.22e-6
1664184174,C;S;V;F,11.5,0x00c000,-39.8,1.43e-5
1664184175,C;S;V;F,11.6,0x00c000,-39.7,9.69e-6
1664184176,C;S;V;F,11.4,0x00c000,-40.1,6.35e-6
1664184177,C;S;V;F,11.4,0x00c000,-40.0,1.46e-5
1664184178,C;S;V;F,12.1,0x00c000,-39.8,1.12e-5
1664184179,C;S;V;F,11.9,0x00c000,-39.3,5.14e-6
1664184180,C;S;V;F,11.7,0x00c000,-39.6,
1664184181,,11.7,0x00c000,-39.6,5.14e-6
1664184182,C;S;V;F,11.9,0x00c000,-39.6,7.86e-6
1664184183,C;S;V;F,12.0,0x00c000,-39.4,5.59e-6
1664184184,C;S;V;F,12.1,0x00c000,-39.6,4.68e-6
1664184185,C;S;V;F,12.0,0x00c000,-39.5,3.17e-6
1664184186,C;S;V;F,,0x00c000,-39.3,4.53e-6
1664184187,C;S;V;F,12.4,0x00c000,-38.9,3.78e-6
1664184188,C;S;V;F,12.6,0x00c000,,1.21e-6
1664184189,C;S;V;F,12.5,0x00c000,-39.1,7.57e-7
1664184190,C;S;V;F,12.6,0x00c000,-38.7,1.05e-6
1664184191,C;S;V;F,12.9,0x00c000,-38.8,3.03e-7
1664184192,C;S;V;F,12.4,0x00c000,-38.9,7.57e-7
1664184193,C;S;V;F,12.4,0x00c000,-38.8,9.09e-7
1664184194,C;S;V;F,12.6,0x00c000,-38.7,6.06e-7
1664184195,C;S;V;F,12.9,0x00c000,-38.7,4.54e-7
1664184196,C;S;V;F,12.9,0x00c000,-38.7,3.03e-7
1664184197,C;S;V;F,12.9,0x00c000,-38.6,0.00e-0
1664184198,C;S;V;F,13.2,0x00c000,-38.4,0.00e-0
1664184199,C;S;V;F,13.0,0x00c000,-38.6,0.00e-0
1664184200,C;S;V;F,13.3,0x00c000,-38.4,
1664184201,,,,,0.00e-0
1664184203,C;S;V;F,12.8,0x00c000,-38.8,
1664184204,,12.7,0x00c000,-38.8,1.51e-7
1664184205,C;S;V;F,13.1,0x00c000,-38.8,6.06e-7
1664184206,C;S;V;F,13.2,0x00c000,-38.4,4.54e-7
1664184207,C;S;V;F,13.2,0x00c000,-38.4,1.51e-7
1664184208,C;S;V;F,,0x00c000,-38.8,0.00e-0
1664184209,C;S;V;F,12.8,0x00c000,-38.6,1.51e-7
1664184210,C;S;V;F,13.1,0x00c000,,1.51e-7
1664184211,C;S;V;F,13.4,0x00c000,-38.4,1.51e-7
1664184212,C;S;V;F,13.7,0x00c000,-38.1,1.51e-7
1664184213,C;S;V;F,13.6,0x00c000,-38.1,0.00e-0
1664184214,C;S;V;F,13.8,0x00c000,-38.1,0.00e-0
1664184215,C;S;V;F,13.3,0x00c000,-38.4,0.00e-0
1664184216,C;S;V;F,13.5,0x00c000,-38.1,0.00e-0
1664184217,C;S;V;F,13.5,0x00c000,-38.2,0.00e-0
1664184218,C;S;V;F,13.6,0x00c000,-38.4,1.51e-7
1664184219,C;S;V;F,13.3,0x00c000,-38.5,1.51e-7
1664184220,C;S;V;F,13.4,0x00c000,-38.3,0.00e-0
1664184221,C;S;V;F,13.4,0x00c000,-38.3,
1664184222,,13.2,0x00c000,-38.5,0.00e-0
1664184223,C;S;V;F,13.2,0x00c000,-38.4,0.00e-0
1664184224,C;S;V;F,,,,0.00e-0
1664184227,,13.6,0x00c000,-38.0,
1664184228,C;S;V;F,13.7,0x00c000,-38.1,0.00e-0
1664184229,C;S;V;F,,0x00c000,-38.0,0.00e-0
1664184230,C;S;V;F,13.6,0x00c000,-38.0,0.00e-0
1664184231,C;S;V;F,13.9,0x00c000,,0.00e-0
1664184232,C;S;V;F,13.7,0x00c000,-38.0,0.00e-0
1664184233,C;S;V;F,13.7,0x00c000,-38.0,0.00e-0
1664184234,C;S;V;F,13.8,0x00c000,-38.0,0.00e-0
1664184235,C;S;V;F,14.0,0x00c000,-38.0,0.00e-0
1664184236,C;S;V;F,13.9,0x00c000,-37.9,0.00e-0
1664184237,C;S;V;F,14.1,0x00c000,-37.9,0.00e-0
1664184238,C;S;V;F,13.9,0x00c000,-38.0,0.00e-0
1664184239,C;S;V;F,13.9,0x00c000,-37.9,0.00e-0
1664184240,C;S;V;F,13.8,0x00c000,-37.9,
1664184241,C;S;V;F,14.0,0x00c000,-37.9,0.00e-0
1664184242,,14.1,0x00c000,-37.9,0.00e-0
1664184243,C;S;V;F,14.0,0x00c000,-38.0,0.00e-0
1664184244,C;S;V;F,14.0,0x00c000,-37.9,0.00e-0
1664184245,C;S;V;F,,0x00c000,-37.9,0.00e-0
1664184246,C;S;V;F,14.0,0x00c000,,0.00e-0
1664184247,C;S;V;F,14.1,0x00c000,-38.0,0.00e-0
1664184248,C;S;V;F,14.1,0x00c000,-38.0,0.00e-0
1664184249,C;S;V;F,14.2,0x00c000,-38.0,0.00e-0
1664184250,C;S;V;F,13.7,0x00c000,-38.0,0.00e-0
1664184251,C;S;V;F,14.1,0x00c000,-38.0,0.00e-0
1664184252,C;S;V;F,14.0,0x00c000,-37.9,0.00e-0
1664184253,C;S;V;F,14.0,0x00c000,-37.9,0.00e-0
1664184254,C;S;V;F,13.8,0x00c000,-37.9,0.00e-0
1664184255,C;S;V;F,13.9,0x00c000,-37.9,0.00e-0
1664184256,C;S;V;F,13.7,0x00c000,-38.0,0.00e-0
1664184257,C;S;V;F,14.0,0x00c000,-37.9,0.00e-0
1664184258,C;S;V;F,14.0,0x00c000,-37.9,0.00e-0
1664184259,,14.0,0x00c000,-38.0,
1664184260,C;S;V;F,14.2,0x00c000,-37.7,0.00e-0
1664184261,C;S;V;F,14.2,0x00c000,-37.8,0.00e-0
1664184262,C;S;V;F,13.9,0x00c000,-37.8,0.00e-0
1664184263,C;S;V;F,14.2,0x00c000,-37.6,0.00e-0
1664184264,C;S;V;F,,0x00c000,,0.00e-0
1664184266,C;S;V;F,14.4,0x00c000,-37.7,0.00e-0
1664184267,C;S;V;F,14.1,0x00c000,-37.9,0.00e-0
1664184268,C;S;V;F,14.3,0x00c000,-37.9,0.00e-0
1664184269,C;S;V;F,14.3,0x00c000,-38.0,0.00e-0
1664184270,C;S;V;F,14.1,0x00c000,-37.9,0.00e-0
1664184271,C;S;V;F,14.1,0x00c000,-37.9,0.00e-0
1664184272,C;S;V;F,14.2,0x00c000,-37.9,
1664184273,,14.4,0x00c000,-37.7,0.00e-0
1664184274,C;S;V;F,14.4,0x00c000,-37.6,0.00e-0
1664184275,C;S;V;F,14.8,0x00c000,-37.5,0.00e-0
1664184276,C;S;V;F,,0x00c000,-37.5,0.00e-0
1664184277,C;S;V;F,14.5,0x00c000,-37.4,0.00e-0
1664184278,C;S;V;F,14.6,0x00c000,-37.3,0.00e-0
1664184279,C;S;V;F,14.6,0x00c000,,0.00e-0
1664184280,C;S;V;F,14.5,0x00c000,-37.2,0.00e-0
1664184281,C;S;V;F,14.9,0x00c000,-37.2,0.00e-0
1664184282,C;S;V;F,14.8,0x00c000,-37.1,0.00e-0
1664184283,C;S;V;F,14.9,0x00c000,-36.8,0.00e-0
1664184284,C;S;V;F,15.2,0x00c000,-36.7,0.00e-0
1664184285,C;S;V;F,15.3,0x00c000,-36.8,0.00e-0
1664184286,C;S;V;F,15.3,0x00c000,-36.7,0.00e-0
1664184287,C;S;V;F,15.3,0x00c000,-36.4,
1664184288,,15.7,0x00c000,-36.3,0.00e-0
1664184289,C;S;V;F,15.8,0x00c000,-36.1,0.00e-0
1664184290,C;S;V;F,15.7,0x00c000,-36.2,0.00e-0
1664184291,C;S;V;F,,0x00c000,-36.0,0.00e-0
1664184292,C;S;V;F,16.0,0x00c000,,0.00e-0
1664184293,C;S;V;F,15.9,0x00c000,-36.2,0.00e-0
1664184294,C;S;V;F,16.1,0x00c000,-36.0,0.00e-0
1664184295,C;S;V;F,15.9,0x00c000,-35.9,0.00e-0
1664184296,C;S;V;F,15.9,0x00c000,-35.9,0.00e-0
1664184297,C;S;V;F,15.9,0x00c000,-35.9,0.00e-0
1664184298,C;S;V;F,15.9,0x00c000,-35.8,0.00e-0
1664184299,C;S;V;F,16.0,0x00c000,-35.8,0.00e-0
1664184300,C;S;V;F,16.0,0x00c000,-35.6,
1664184301,,16.1,0x00c000,-35.6,0.00e-0
1664184302,C;S;V;F,16.2,0x00c000,-35.7,0.00e-0
1664184303,C;S;V;F,,0x00c000,-35.6,0.00e-0
1664184304,C;S;V;F,16.0,0x00c000,-35.6,0.00e-0
1664184305,C;S;V;F,15.9,0x00c000,,0.00e-0
1664184306,C;S;V;F,16.3,0x00c000,-35.5,0.00e-0
1664184307,C;S;V;F,16.4,0x00c000,-35.6,0.00e-0
1664184308,C;S;V;F,16.3,0x00c000,-35.6,0.00e-0
1664184309,C;S;V;F,16.4,0x00c000,-35.3,0.00e-0
1664184310,C;S;V;F,16.6,0x00c000,-35.2,0.00e-0
1664184311,C;S;V;F,16.7,0x00c000,-35.2,0.00e-0
1664184312,C;S;V;F,16.7,0x00c000,-35.1,0.00e-0
1664184313,C;S;V;F,16.7,0x00c000,-35.1,0.00e-0
1664184314,C;S;V;F,16.7,0x00c000,-35.0,0.00e-0
1664184315,,16.6,0x00c000,-35.0,
1664184316,C;S;V;F,16.9,0x00c000,-34.9,0.00e-0
1664184317,C;S;V;F,16.9,0x00c000,-34.8,0.00e-0
1664184318,C;S;V;F,16.8,0x00c000,-34.7,0.00e-0
1664184319,C;S;V;F,17.0,0x00c000,-34.7,0.00e-0
1664184320,C;S;V;F,17.1,0x00c000,-34.7,0.00e-0
1664184321,C;S;V;F,16.9,0x00c000,-34.8,0.00e-0
1664184322,C;S;V;F,,0x00c000,-34.8,0.00e-0
1664184323,C;S;V;F,17.0,0x00c000,-34.9,0.00e-0
1664184324,C;S;V;F,17.0,0x00c000,-34.8,0.00e-0
1664184325,C;S;V;F,16.7,0x00c000,,0.00e-0
1664184326,C;S;V;F,16.9,0x00c000,-34.8,0.00e-0
1664184328,,,0x00c000,-35.0,
1664184329,C;S;V;F,16.7,0x00c000,,0.00e-0
1664184330,C;S;V;F,16.6,0x00c000,-35.2,0.00e-0
1664184331,C;S;V;F,16.5,0x00c000,-35.3,0.00e-0
1664184332,C;S;V;F,16.6,0x00c000,-35.5,
1664184333,,16.4,0x00c000,-35.5,0.00e-0
1664184334,C;S;V;F,16.3,0x00c000,-35.5,0.00e-0
1664184335,C;S;V;F,16.6,0x00c000,-35.2,0.00e-0
1664184336,C;S;V;F,16.6,0x00c000,-35.3,0.00e-0
1664184337,C;S;V;F,,0x00c000,-35.1,0.00e-0
1664184338,C;S;V;F,16.6,0x00c000,-35.1,0.00e-0
1664184339,C;S;V;F,16.6,0x00c000,-35.3,0.00e-0
1664184340,C;S;V;F,16.6,0x00c000,,0.00e-0
1664184341,C;S;V;F,16.5,0x00c000,-35.3,0.00e-0
1664184342,C;S;V;F,16.5,0x00c000,-35.2,0.00e-0
1664184343,C;S;V;F,16.5,0x00c000,-35.3,0.00e-0
1664184344,C;S;V;F,16.5,0x00c000,-35.2,0.00e-0
1664184345,C;S;V;F,16.6,0x00c000,-35.2,0.00e-0
1664184346,C;S;V;F,16.8,0x00c000,-35.0,0.00e-0
1664184347,C;S;V;F,16.6,0x00c000,-34.8,0.00e-0
1664184348,C;S;V;F,16.7,0x00c000,-35.3,0.00e-0
1664184349,C;S;V;F,16.6,0x00c000,-35.0,0.00e-0
1664184350,C;S;V;F,16.6,0x00c000,-35.0,
1664184351,,16.7,0x00c000,-35.0,0.00e-0
1664184352,C;S;V;F,16.9,0x00c000,-35.1,0.00e-0
1664184353,C;S;V;F,16.9,0x00c000,-34.8,0.00e-0
1664184354,C;S;V;F,16.7,0x00c000,-34.8,0.00e-0
1664184355,C;S;V;F,,0x00c000,-34.8,0.00e-0
1664184356,C;S;V;F,16.5,0x00c000,,0.00e-0
1664184357,C;S;V;F,16.7,0x00c000,-34.8,0.00e-0
1664184358,C;S;V;F,16.6,0x00c000,-34.8,0.00e-0
1664184359,C;S;V;F,16.9,0x00c000,-35.0,0.00e-0
1664184360,C;S;V;F,16.6,0x00c000,-34.8,0.00e-0
1664184361,C;S;V;F,16.8,0x00c000,-34.7,0.00e-0
1664184362,C;S;V;F,17.1,0x00c000,-34.7,0.00e-0
1664184363,C;S;V;F,17.1,0x00c000,-34.6,0.00e-0
1664184364,C;S;V;F,17.0,0x00c000,-34.6,0.00e-0
1664184365,C;S;V;F,17.1,0x00c000,-34.5,
1664184366,,17.1,0x00c000,-34.8,0.00e-0
1664184367,C;S;V;F,17.0,0x00c000,-34.7,0.00e-0
1664184368,C;S;V;F,17.1,0x00c000,-34.7,0.00e-0
1664184369,C;S;V;F,16.9,0x00c000,-34.7,0.00e-0
1664184370,C;S;V;F,,0x00c000,-34.7,0.00e-0
1664184371,C;S;V;F,17.1,0x00c000,,0.00e-0
1664184372,C;S;V;F,17.0,0x00c000,-34.7,0.00e-0
1664184373,C;S;V;F,17.3,0x00c000,-34.4,0.00e-0
1664184374,C;S;V;F,17.1,0x00c000,-34.6,0.00e-0
1664184375,C;S;V;F,17.3,0x00c000,-34.8,0.00e-0
1664184376,C;S;V;F,16.8,0x00c000,-35.2,0.00e-0
1664184377,C;S;V;F,16.9,0x00c000,-35.0,0.00e-0
1664184378,C;S;V;F,16.8,0x00c000,-35.1,0.00e-0
1664184379,C;S;V;F,17.0,0x00c000,-34.8,0.00e-0
1664184380,C;S;V;F,17.2,0x00c000,-34.7,
1664184381,,17.1,0x00c000,-34.8,0.00e-0
1664184382,C;S;V;F,17.0,0x00c000,-34.8,0.00e-0
1664184383,C;S;V;F,16.8,0x00c000,-34.8,0.00e-0
1664184384,C;S;V;F,16.8,0x00c000,-34.9,0.00e-0
1664184385,C;S;V;F,,0x00c000,-35.0,0.00e-0
1664184386,C;S;V;F,17.0,0x00c000,-35.2,0.00e-0
1664184387,C;S;V;F,16.9,0x00c000,,0.00e-0
1664184388,C;S;V;F,16.9,0x00c000,-35.1,0.00e-0
1664184389,C;S;V;F,16.8,0x00c000,-35.0,0.00e-0
1664184391,,16.6,0x00c000,-35.2,
1664184392,C;S;V;F,16.6,0x00c000,-35.2,0.00e-0
1664184393,C;S;V;F,16.7,0x00c000,-35.3,0.00e-0
1664184394,C;S;V;F,16.5,0x00c000,-35.5,0.00e-0
1664184395,C;S;V;F,,0x00c000,-35.7,0.00e-0
1664184396,C;S;V;F,16.4,0x00c000,-35.6,0.00e-0
1664184397,C;S;V;F,16.3,0x00c000,,0.00e-0
1664184398,C;S;V;F,16.2,0x00c000,-35.7,0.00e-0
1664184399,C;S;V;F,16.1,0x00c000,-35.7,0.00e-0
1664184400,C;S;V;F,16.2,0x00c000,-35.7,0.00e-0
1664184401,C;S;V;F,16.3,0x00c000,-35.9,0.00e-0
1664184402,C;S;V;F,16.2,0x00c000,-35.8,0.00e-0
1664184403,C;S;V;F,16.3,0x00c000,-35.8,0.00e-0
1664184404,C;S;V;F,16.3,0x00c000,-35.7,0.00e-0
1664184405,C;S;V;F,16.4,0x00c000,-35.6,
1664184406,,16.4,0x00c000,-35.5,0.00e-0
1664184407,C;S;V;F,16.4,0x00c000,-35.5,0.00e-0
1664184408,C;S;V;F,16.4,0x00c000,-35.6,0.00e-0
1664184409,C;S;V;F,,0x00c000,,0.00e-0
1664184410,C;S;V;F,16.6,0x00c000,-35.4,0.00e-0
1664184411,C;S;V;F,16.6,0x00c000,-35.2,0.00e-0
1664184412,C;S;V;F,16.8,0x00c000,-35.1,0.00e-0
1664184413,C;S;V;F,16.8,0x00c000,-35.2,0.00e-0
1664184414,C;S;V;F,16.8,0x00c000,-35.2,0.00e-0
1664184415,C;S;V;F,16.6,0x00c000,-35.5,0.00e-0
1664184416,C;S;V;F,16.4,0x00c000,-35.4,0.00e-0
1664184417,C;S;V;F,16.4,0x00c000,-35.6,0.00e-0
1664184418,C;S;V;F,16.3,0x00c000,-35.6,0.00e-0
1664184419,C;S;V;F,16.4,0x00c000,-35.5,0.00e-0
1664184420,C;S;V;F,16.3,0x00c000,-35.5,0.00e-0
1664184421,C;S;V;F,16.4,0x00c000,-35.6,
1664184422,,16.5,0x00c000,-35.5,0.00e-0
1664184423,C;S;V;F,16.5,0x00c000,-35.5,0.00e-0
1664184424,C;S;V;F,16.7,0x00c000,-35.3,0.00e-0
1664184425,C;S;V;F,,0x00c000,-35.4,0.00e-0
1664184426,C;S;V;F,16.3,0x00c000,-35.6,0.00e-0
1664184427,C;S;V;F,16.4,0x00c000,-35.5,0.00e-0
1664184428,C;S;V;F,16.6,0x00c000,,0.00e-0
1664184429,C;S;V;F,16.2,0x00c000,-35.6,0.00e-0
1664184430,C;S;V;F,16.3,0x00c000,-35.6,0.00e-0
1664184431,C;S;V;F,16.4,0x00c000,-35.4,0.00e-0
1664184432,C;S;V;F,16.4,0x00c000,-35.6,0.00e-0
1664184433,C;S;V;F,16.5,0x00c000,-35.5,0.00e-0
1664184434,C;S;V;F,16.6,0x00c000,-35.5,0.00e-0
1664184435,C;S;V;F,16.5,0x00c000,-35.6,0.00e-0
1664184436,C;S;V;F,16.6,0x00c000,-35.6,0.00e-0
1664184437,C;S;V;F,16.4,0x00c000,-35.6,
1664184438,,16.5,0x00c000,-35.5,0.00e-0
1664184439,C;S;V;F,16.6,0x00c000,-35.3,0.00e-0
1664184440,C;S;V;F,16.3,0x00c000,-35.4,0.00e-0
1664184441,C;S;V;F,,0x00c000,-35.5,0.00e-0
1664184442,C;S;V;F,16.5,0x00c000,-35.5,0.00e-0
1664184443,C;S;V;F,16.3,0x00c000,,0.00e-0
1664184444,C;S;V;F,16.4,0x00c000,-35.4,0.00e-0
1664184445,C;S;V;F,16.2,0x00c000,-35.5,0.00e-0
1664184446,C;S;V;F,16.5,0x00c000,-35.6,0.00e-0
1664184447,C;S;V;F,16.4,0x00c000,-35.5,0.00e-0
1664184448,C;S;V;F,16.4,0x00c000,-35.6,0.00e-0
1664184449,C;S;V;F,16.6,0x00c000,-35.5,0.00e-0
1664184450,C;S;V;F,16.4,0x00c000,-35.8,0.00e-0
1664184451,C;S;V;F,16.3,0x00c000,-35.7,0.00e-0
1664184453,C;S;V;F,16.5,0x00c000,-35.7,0.00e-0
1664184454,C;S;V;F,16.7,0x00c000,-35.3,
1664184455,C;S;V;F,16.7,0x00c000,-35.5,0.00e-0
1664184456,,16.5,0x00c000,-35.2,0.00e-0
1664184457,C;S;V;F,16.7,0x00c000,-35.4,0.00e-0
1664184458,C;S;V;F,16.3,0x00c000,-35.5,0.00e-0
1664184459,C;S;V;F,,0x00c000,-35.6,0.00e-0
1664184460,C;S;V;F,16.4,0x00c000,,0.00e-0
1664184461,C;S;V;F,16.2,0x00c000,-35.5,0.00e-0
1664184462,C;S;V;F,16.2,0x00c000,-35.9,0.00e-0
1664184463,C;S;V;F,16.2,0x00c000,-35.6,0.00e-0
1664184464,C;S;V;F,16.5,0x00c000,-35.6,0.00e-0
1664184465,C;S;V;F,16.3,0x00c000,-35.6,0.00e-0
1664184466,C;S;V;F,16.4,0x00c000,-35.7,0.00e-0
1664184467,C;S;V;F,16.2,0x00c000,-35.7,
1664184468,,16.1,0x00c000,-35.6,0.00e-0
1664184469,C;S;V;F,16.1,0x00c000,-35.8,0.00e-0
1664184470,C;S;V;F,16.1,0x00c000,-35.6,0.00e-0
1664184471,C;S;V;F,16.4,0x00c000,-35.6,0.00e-0
1664184472,C;S;V;F,,0x00c000,-35.3,0.00e-0
1664184473,C;S;V;F,16.5,0x00c000,-35.6,0.00e-0
1664184474,C;S;V;F,16.3,0x00c000,,0.00e-0
1664184475,C;S;V;F,16.6,0x00c000,-35.4,0.00e-0
1664184476,C;S;V;F,16.6,0x00c000,-35.5,0.00e-0
1664184477,C;S;V;F,16.5,0x00c000,-35.6,0.00e-0
1664184478,C;S;V;F,16.4,0x00c000,-35.5,0.00e-0
1664184479,C;S;V;F,16.4,0x00c000,-35.7,0.00e-0
1664184480,C;S;V;F,16.4,0x00c000,-35.5,0.00e-0
1664184481,C;S;V;F,16.5,0x00c000,-35.4,0.00e-0
1664184482,C;S;V;F,16.9,0x00c000,-35.2,0.00e-0
1664184483,C;S;V;F,16.7,0x00c000,-35.1,0.00e-0
1664184484,C;S;V;F,16.6,0x00c000,-35.2,0.00e-0
1664184485,C;S;V;F,16.6,0x00c000,-35.1,0.00e-0
1664184486,C;S;V;F,16.7,0x00c000,-35.2,0.00e-0
1664184487,C;S;V;F,16.9,0x00c000,-35.1,
1664184488,,16.8,0x00c000,-35.1,0.00e-0
1664184489,C;S;V;F,16.7,0x00c000,-35.1,0.00e-0
1664184490,C;S;V;F,16.7,0x00c000,-35.2,0.00e-0
1664184491,C;S;V;F,16.7,0x00c000,-35.5,0.00e-0
1664184492,C;S;V;F,,0x00c000,-35.4,0.00e-0
1664184493,C;S;V;F,16.6,0x00c000,,0.00e-0
1664184494,C;S;V;F,16.7,0x00c000,-35.2,0.00e-0
1664184495,C;S;V;F,16.5,0x00c000,-35.1,0.00e-0
1664184496,C;S;V;F,16.9,0x00c000,-34.7,0.00e-0
1664184497,C;S;V;F,17.3,0x00c000,-34.7,0.00e-0
1664184498,C;S;V;F,16.8,0x00c000,-34.8,0.00e-0
1664184499,C;S;V;F,17.0,0x00c000,-34.8,0.00e-0
1664184500,C;S;V;F,16.8,0x00c000,-34.9,0.00e-0
1664184501,C;S;V;F,17.0,0x00c000,-35.2,0.00e-0
1664184502,C;S;V;F,16.7,0x00c000,-35.1,0.00e-0
1664184503,,16.8,0x00c000,-35.2,
1664184504,C;S;V;F,16.7,0x00c000,-35.2,0.00e-0
1664184505,C;S;V;F,16.8,0x00c000,-35.3,0.00e-0
1664184506,C;S;V;F,,0x00c000,-35.5,0.00e-0
1664184507,C;S;V;F,16.6,0x00c000,-35.3,0.00e-0
1664184508,C;S;V;F,16.6,0x00c000,,0.00e-0
1664184509,C;S;V;F,16.6,0x00c000,-35.5,0.00e-0
1664184510,C;S;V;F,16.6,0x00c000,-35.6,0.00e-0
1664184511,C;S;V;F,16.5,0x00c000,-35.6,0.00e-0
1664184512,C;S;V;F,16.4,0x00c000,-35.5,0.00e-0
1664184513,C;S;V;F,16.2,0x00c000,-35.5,0.00e-0
1664184514,C;S;V;F,16.4,0x00c000,-35.5,0.00e-0
1664184517,C;S;V;F,16.4,0x00c000,-35.4,0.00e-0
1664184518,C;S;V;F,16.4,0x00c000,-35.3,0.00e-0
1664184519,C;S;V;F,16.5,0x00c000,-35.6,0.00e-0
1664184520,C;S;V;F,16.2,0x00c000,-35.6,0.00e-0
1664184521,C;S;V;F,16.3,0x00c000,-35.7,0.00e-0
1664184522,C;S;V;F,16.1,0x00c000,-36.0,
1664184523,,16.0,0x00c000,-35.9,0.00e-0
1664184524,C;S;V;F,15.9,0x00c000,-36.0,0.00e-0
1664184525,C;S;V;F,16.1,0x00c000,-36.1,0.00e-0
1664184526,C;S;V;F,,0x00c000,,0.00e-0
1664184527,C;S;V;F,15.9,0x00c000,-36.0,0.00e-0
1664184530,C;S;V;F,16.2,0x00c000,-35.9,
1664184531,C;S;V;F,16.2,0x00c000,-35.9,0.00e-0
1664184532,,16.3,0x00c000,-35.8,0.00e-0
1664184533,C;S;V;F,16.1,0x00c000,-35.6,0.00e-0
1664184534,C;S;V;F,16.3,0x00c000,-35.3,0.00e-0
1664184535,C;S;V;F,16.4,0x00c000,-35.4,0.00e-0
1664184536,C;S;V;F,,0x00c000,-35.4,0.00e-0
1664184537,C;S;V;F,16.3,0x00c000,,0.00e-0
1664184538,C;S;V;F,16.4,0x00c000,-35.3,0.00e-0
1664184539,C;S;V;F,16.5,0x00c000,-35.4,0.00e-0
1664184540,C;S;V;F,16.2,0x00c000,-35.5,0.00e-0
1664184541,C;S;V;F,16.3,0x00c000,-35.6,0.00e-0
1664184542,C;S;V;F,16.3,0x00c000,-35.6,0.00e-0
1664184543,C;S;V;F,16.5,0x00c000,-35.6,0.00e-0
1664184544,C;S;V;F,16.3,0x00c000,-35.5,0.00e-0
1664184545,C;S;V;F,16.4,0x00c000,-35.5,0.00e-0
1664184546,C;S;V;F,16.6,0x00c000,-35.4,0.00e-0
1664184547,C;S;V;F,16.5,0x00c000,-35.2,
1664184548,C;S;V;F,16.6,0x00c000,-35.2,0.00e-0
1664184549,,16.9,0x00c000,-34.9,0.00e-0
1664184550,C;S;V;F,16.5,0x00c000,-35.2,0.00e-0
1664184551,C;S;V;F,16.8,0x00c000,-35.2,0.00e-0
1664184552,C;S;V;F,,0x00c000,-35.2,0.00e-0
1664184553,C;S;V;F,16.5,0x00c000,-35.5,0.00e-0
1664184554,C;S;V;F,16.4,0x00c000,-35.5,0.00e-0
1664184555,C;S;V;F,16.5,0x00c000,,0.00e-0
1664184556,C;S;V;F,16.6,0x00c000,-35.3,0.00e-0
1664184557,C;S;V;F,16.5,0x00c000,-35.4,0.00e-0
1664184558,C;S;V;F,16.6,0x00c000,-35.2,0.00e-0
1664184559,C;S;V;F,16.5,0x00c000,-35.5,0.00e-0
1664184560,C;S;V;F,16.8,0x00c000,-35.4,0.00e-0
1664184561,C;S;V;F,16.6,0x00c000,-35.2,0.00e-0
1664184562,C;S;V;F,16.7,0x00c000,-35.1,0.00e-0
1664184563,C;S;V;F,16.9,0x00c000,-34.9,0.00e-0
1664184564,C;S;V;F,17.0,0x00c000,-34.9,0.00e-0
1664184565,C;S;V;F,16.7,0x00c000,-34.8,0.00e-0
1664184566,C;S;V;F,16.6,0x00c000,-35.0,
1664184567,,16.6,0x00c000,-35.2,0.00e-0
1664184568,C;S;V;F,16.5,0x00c000,-34.9,0.00e-0
1664184569,C;S;V;F,,0x00c000,,0.00e-0
1664184570,C;S;V;F,16.4,0x00c000,-35.2,0.00e-0
1664184571,C;S;V;F,16.8,0x00c000,-35.3,0.00e-0
1664184572,C;S;V;F,16.4,0x00c000,-35.2,0.00e-0
1664184573,C;S;V;F,16.5,0x00c000,-35.5,0.00e-0
1664184574,C;S;V;F,16.3,0x00c000,-35.5,0.00e-0
1664184575,C;S;V;F,16.4,0x00c000,-35.6,0.00e-0
1664184576,C;S;V;F,16.1,0x00c000,-35.9,0.00e-0
1664184577,C;S;V;F,15.9,0x00c000,-35.9,0.00e-0
1664184579,,,0x00c000,-36.1,
1664184580,C;S;V;F,15.8,0x00c000,-36.4,0.00e-0
1664184581,C;S;V;F,15.7,0x00c000,,0.00e-0
1664184582,C;S;V;F,15.5,0x00c000,-36.4,0.00e-0
1664184583,C;S;V;F,15.5,0x00c000,-36.4,0.00e-0
1664184584,C;S;V;F,15.5,0x00c000,-36.5,0.00e-0
1664184585,C;S;V;F,15.5,0x00c000,-36.4,0.00e-0
1664184586,C;S;V;F,15.2,0x00c000,-36.4,0.00e-0
1664184587,C;S;V;F,15.6,0x00c000,-36.7,0.00e-0
1664184588,C;S;V;F,15.4,0x00c000,-36.7,0.00e-0
1664184589,C;S;V;F,15.1,0x00c000,-36.8,0.00e-0
1664184590,C;S;V;F,15.1,0x00c000,-36.9,0.00e-0
1664184591,C;S;V;F,15.1,0x00c000,-37.0,0.00e-0
1664184592,C;S;V;F,14.9,0x00c000,-37.2,0.00e-0
1664184593,C;S;V;F,15.0,0x00c000,-37.3,
1664184594,,14.8,0x00c000,-37.2,0.00e-0
1664184595,C;S;V;F,14.7,0x00c000,-37.3,0.00e-0
1664184596,C;S;V;F,14.5,0x00c000,-37.5,0.00e-0
1664184597,C;S;V;F,,0x00c000,-37.9,0.00e-0
1664184598,C;S;V;F,14.4,0x00c000,-37.8,0.00e-0
1664184599,C;S;V;F,14.3,0x00c000,,0.00e-0
1664184600,C;S;V;F,14.3,0x00c000,-37.7,0.00e-0
1664184601,C;S;V;F,14.2,0x00c000,-37.9,0.00e-0
1664184602,C;S;V;F,14.1,0x00c000,-37.8,0.00e-0
1664184603,C;S;V;F,14.1,0x00c000,-37.6,0.00e-0
1664184604,C;S;V;F,14.4,0x00c000,-37.8,0.00e-0
1664184605,C;S;V;F,14.3,0x00c000,-37.7,0.00e-0
1664184606,C;S;V;F,14.2,0x00c000,-37.9,0.00e-0
1664184607,C;S;V;F,14.3,0x00c000,-37.6,
1664184608,C;S;V;F,14.0,0x00c000,-38.0,0.00e-0
1664184609,,14.0,0x00c000,-38.1,0.00e-0
1664184610,C;S;V;F,13.8,0x00c000,-38.3,0.00e-0
1664184611,C;S;V;F,13.4,0x00c000,-38.4,0.00e-0
1664184612,C;S;V;F,13.2,0x00c000,-38.7,0.00e-0
1664184613,C;S;V;F,,0x00c000,-38.8,0.00e-0
1664184614,C;S;V;F,13.1,0x00c000,,0.00e-0
1664184615,C;S;V;F,13.2,0x00c000,-38.9,0.00e-0
1664184616,C;S;V;F,13.2,0x00c000,-38.8,0.00e-0
1664184617,C;S;V;F,13.2,0x00c000,-38.7,1.51e-7
1664184618,C;S;V;F,13.4,0x00c000,-38.7,1.51e-7
1664184619,C;S;V;F,13.4,0x00c000,-38.5,0.00e-0
1664184620,C;S;V;F,13.6,0x00c000,-38.3,0.00e-0
1664184621,C;S;V;F,13.5,0x00c000,-38.4,0.00e-0
1664184622,C;S;V;F,13.4,0x00c000,-38.7,1.51e-7
1664184623,C;S;V;F,13.4,0x00c000,-38.6,1.51e-7
1664184624,C;S;V;F,13.5,0x00c000,-38.7,1.51e-7
1664184625,C;S;V;F,13.4,0x00c000,-38.5,
1664184626,C;S;V;F,13.4,0x00c000,-38.8,0.00e-0
1664184627,,13.1,0x00c000,-38.8,1.51e-7
1664184628,C;S;V;F,13.1,0x00c000,-39.1,1.51e-7
1664184629,C;S;V;F,13.0,0x00c000,-38.8,1.51e-7
1664184630,C;S;V;F,,0x00c000,,1.51e-7
1664184631,C;S;V;F,13.1,0x00c000,-38.8,0.00e-0
1664184632,C;S;V;F,13.1,0x00c000,-38.8,0.00e-0
1664184633,C;S;V;F,13.1,0x00c000,-38.7,0.00e-0
1664184634,C;S;V;F,13.2,0x00c000,-38.5,0.00e-0
1664184635,C;S;V;F,13.1,0x00c000,-38.6,0.00e-0
1664184636,C;S;V;F,13.1,0x00c000,-38.6,
1664184637,,13.0,0x00c000,-38.8,1.51e-7
1664184638,C;S;V;F,13.1,0x00c000,-38.9,0.00e-0
1664184639,C;S;V;F,12.6,0x00c000,-39.1,0.00e-0
1664184640,C;S;V;F,,0x00c000,,3.03e-7
1664184642,,13.0,0x00c000,-38.8,
1664184643,C;S;V;F,,0x00c000,-38.6,6.06e-7
1664184644,C;S;V;F,13.3,0x00c000,-38.5,3.03e-7
1664184645,C;S;V;F,13.3,0x00c000,,1.51e-7
1664184646,C;S;V;F,13.5,0x00c000,-38.4,0.00e-0
1664184647,C;S;V;F,13.5,0x00c000,-38.0,0.00e-0
1664184648,C;S;V;F,13.9,0x00c000,-37.9,0.00e-0
1664184649,C;S;V;F,13.6,0x00c000,-38.1,0.00e-0
1664184650,C;S;V;F,13.7,0x00c000,-38.0,0.00e-0
1664184651,C;S;V;F,13.8,0x00c000,-38.3,0.00e-0
1664184652,C;S;V;F,13.4,0x00c000,-38.4,0.00e-0
1664184653,C;S;V;F,13.7,0x00c000,-38.2,0.00e-0
1664184654,C;S;V;F,13.3,0x00c000,-38.2,
1664184655,,13.7,0x00c000,-38.2,0.00e-0
1664184656,C;S;V;F,13.7,0x00c000,-38.2,0.00e-0
1664184657,C;S;V;F,13.6,0x00c000,-38.3,0.00e-0
1664184658,C;S;V;F,,0x00c000,-38.1,0.00e-0
1664184659,C;S;V;F,13.8,0x00c000,-37.8,0.00e-0
1664184660,C;S;V;F,13.9,0x00c000,,0.00e-0
1664184661,C;S;V;F,14.1,0x00c000,-37.6,0.00e-0
1664184662,C;S;V;F,13.9,0x00c000,-38.0,0.00e-0
1664184663,C;S;V;F,14.0,0x00c000,-37.7,0.00e-0
1664184664,C;S;V;F,14.2,0x00c000,-37.7,0.00e-0
1664184665,C;S;V;F,14.2,0x00c000,-37.5,0.00e-0
1664184666,C;S;V;F,14.2,0x00c000,-37.5,0.00e-0
1664184667,C;S;V;F,14.6,0x00c000,-37.1,0.00e-0
1664184668,C;S;V;F,14.6,0x00c000,-37.1,0.00e-0
1664184669,C;S;V;F,14.7,0x00c000,-37.2,0.00e-0
1664184670,C;S;V;F,14.8,0x00c000,-36.8,0.00e-0
1664184671,C;S;V;F,14.3,0x00c000,-37.2,0.00e-0
1664184672,C;S;V;F,14.3,0x00c000,-37.2,
1664184673,,14.7,0x00c000,-37.1,0.00e-0
1664184674,C;S;V;F,14.6,0x00c000,-37.2,0.00e-0
1664184675,C;S;V;F,14.6,0x00c000,-36.8,0.00e-0
1664184676,C;S;V;F,,0x00c000,-37.0,0.00e-0
1664184677,C;S;V;F,14.7,0x00c000,-36.8,0.00e-0
1664184678,C;S;V;F,14.6,0x00c000,,0.00e-0
1664184679,C;S;V;F,14.8,0x00c000,-37.0,0.00e-0
1664184680,C;S;V;F,14.7,0x00c000,-36.9,0.00e-0
1664184681,C;S;V;F,14.9,0x00c000,-36.4,0.00e-0
1664184682,C;S;V;F,15.0,0x00c000,-36.5,0.00e-0
1664184683,C;S;V;F,14.9,0x00c000,-36.6,0.00e-0
1664184684,C;S;V;F,14.9,0x00c000,-36.8,0.00e-0
1664184685,C;S;V;F,14.7,0x00c000,-36.6,0.00e-0
1664184686,C;S;V;F,15.0,0x00c000,-36.4,0.00e-0
1664184687,C;S;V;F,14.4,0x00c000,-37.1,
1664184688,,15.3,0x00c000,-36.3,0.00e-0
1664184689,C;S;V;F,15.2,0x00c000,-36.1,0.00e-0
1664184690,C;S;V;F,,0x00c000,-36.9,0.00e-0
1664184691,C;S;V;F,14.6,0x00c000,-36.4,0.00e-0
1664184692,C;S;V;F,15.0,0x00c000,,0.00e-0
1664184693,C;S;V;F,15.1,0x00c000,-36.3,0.00e-0
1664184694,C;S;V;F,14.8,0x00c000,-36.4,0.00e-0
1664184695,C;S;V;F,15.0,0x00c000,-36.3,0.00e-0
1664184696,C;S;V;F,15.3,0x00c000,-36.4,0.00e-0
1664184697,C;S;V;F,15.0,0x00c000,-36.4,0.00e-0